Flag for Germany Weather past 2 weeks in Dorsten, North Rhine-Westphalia, Germany

Now
37 °F

Fog.


Feels Like: 33 °F
Forecast: 33 / 39 °F
Wind: 5 mph from Southwest

Location: Essen

Current Time: Jan 28, 2015 at 5:21:29 AM

Latest Report: Jan 28, 2015 at 4:00 AM


Visibility: 2 mi

Pressure: 30.08 "Hg

Humidity: 98%

Dew point: 37 °F

Location of DorstenLocation

Historic Weather in Dorsten — Graph

°F

Dorsten temperature yesterday

Maximum temperature yesterday: 41 °F (at 3:00 PM)
Minimum temperature yesterday: 34 °F (at 5:00 AM)
Average temperature yesterday: 38 °F

Past Weeks' High & Low Weather Summary

 TemperatureHumidityPressure
High52 °F (Jan 13, 12:00 PM)100% (Jan 17, 7:00 AM)30.42 "Hg (Jan 17, 7:00 AM)
Low29 °F (Jan 21, 8:00 AM)61% (Jan 21, 3:00 PM)29.41 "Hg (Jan 15, 4:00 PM)
Average36 °F87%29.98 "Hg
* Reported Jan 13 4:00 AM — Jan 28 4:00 AM, Dorsten, Weather by CustomWeather, © 2014

Note: Actual official high and low records may vary slightly from our data, if they occured in-between our weather recording intervals... More about our weather records

Advertising

Dorsten weather history for previous 24 hours

 ConditionsComfort  
Time TempWeatherWind HumidityBarometerVisibility
4:00 AM
Jan 28
37 °FFog.5 mph98%30.08 "Hg2 mi
3:00 AM38 °FFog.5 mph97%30.11 "Hg3 mi
2:00 AM37 °FFog.5 mph97%30.14 "Hg3 mi
1:00 AM37 °FFog.3 mph98%30.16 "Hg3 mi
12:00 AM37 °FFog.3 mph99%30.18 "Hg3 mi
11:00 PM
Jan 27
38 °FFog.2 mph98%30.18 "Hg2 mi
10:00 PM39 °FLow clouds.2 mph99%30.19 "Hg3 mi
9:00 PM39 °FLow clouds.2 mph98%30.19 "Hg3 mi
8:00 PM38 °FLow clouds.2 mph97%30.20 "Hg5 mi
7:00 PM37 °FOvercast.2 mph96%30.20 "Hg6 mi
6:00 PM38 °FOvercast.2 mph93%30.19 "Hg13 mi
5:00 PM40 °FOvercast.2 mph88%30.18 "Hg14 mi
4:00 PM40 °FDrizzle. Low clouds.2 mph90%30.18 "Hg9 mi
3:00 PM41 °FLow clouds.2 mph90%30.18 "Hg9 mi
2:00 PM40 °FLow clouds.2 mph92%30.19 "Hg8 mi
1:00 PM39 °FLow clouds.2 mph94%30.20 "Hg6 mi
12:00 PM38 °FFog.3 mph97%30.20 "Hg4 mi
11:00 AM38 °FLow clouds.2 mph98%30.21 "Hg4 mi
10:00 AM36 °FLow clouds.2 mph98%30.20 "Hg5 mi
9:00 AM36 °FDrizzle. Low clouds.2 mph98%30.20 "Hg5 mi
8:00 AM35 °FLow clouds.2 mph96%30.18 "Hg6 mi
7:00 AM35 °FOvercast.3 mph97%30.17 "Hg5 mi
6:00 AM35 °FLow clouds.2 mph99%30.18 "Hg3 mi
5:00 AM34 °FPassing clouds.2 mph98%30.18 "Hg5 mi
Weather by CustomWeather, © 2014

See weather overviewHow to use our weather pages